Terug naar catalogus

INTELSAT 4-F8

ActiefCommunicatieGEO
NORAD 7544·PAYLOAD· XX

Gelanceerd Nov 21, 1974 vanaf Cape Canaveral Space Force Station

Loading…

TLE

VersSource: Space-Track

Epoch: Sep 14, 2026, 15:53 UTC

1 07544U 74093A   26257.66237473 -.00000054  00000-0  00000-0 0  9993
2 07544   7.7844 303.9622 0003768 230.5870 138.1889  0.99779029126106

Volg INTELSAT 4-F8 in realtime met AllMySat

Download on the App Store